TimeEST,TemperatureF,Dew PointF,Humidity,Sea Level PressureIn,VisibilityMPH,Wind Direction,Wind SpeedMPH,Gust SpeedMPH,PrecipitationIn,Events,Conditions,WindDirDegrees,DateUTC
12:20 AM,39.2,39.2,100,30.13,1.0,Calm,Calm,-,N/A,,Overcast,0,2013-01-12 05:20:00
12:41 AM,39.2,39.2,100,30.13,0.5,Calm,Calm,-,N/A,,Overcast,0,2013-01-12 05:41:00
1:02 AM,39.2,39.2,100,30.12,0.5,Calm,Calm,-,N/A,,Overcast,0,2013-01-12 06:02:00
1:24 AM,39.2,39.2,100,30.12,0.5,Calm,Calm,-,N/A,,Overcast,0,2013-01-12 06:24:00
1:45 AM,39.2,39.2,100,30.12,0.2,Calm,Calm,-,N/A,,Overcast,0,2013-01-12 06:45:00
2:28 AM,39.2,39.2,100,30.14,0.2,Calm,Calm,-,N/A,,Overcast,0,2013-01-12 07:28:00
2:49 AM,37.4,37.4,100,30.14,1.0,Calm,Calm,-,N/A,,Overcast,0,2013-01-12 07:49:00
3:10 AM,37.4,37.4,100,30.14,0.5,Calm,Calm,-,N/A,,Overcast,0,2013-01-12 08:10:00
3:32 AM,37.4,37.4,100,30.14,0.8,Calm,Calm,-,N/A,,Overcast,0,2013-01-12 08:32:00
3:52 AM,37.4,37.4,100,30.13,0.8,Calm,Calm,-,N/A,,Overcast,0,2013-01-12 08:52:00
4:14 AM,37.4,37.4,100,30.13,0.5,Calm,Calm,-,N/A,,Overcast,0,2013-01-12 09:14:00
4:35 AM,37.4,37.4,100,30.13,0.5,Calm,Calm,-,N/A,,Overcast,0,2013-01-12 09:35:00
4:57 AM,37.4,37.4,100,30.13,0.5,Calm,Calm,-,N/A,,Overcast,0,2013-01-12 09:57:00
5:18 AM,37.4,37.4,100,30.14,0.2,Calm,Calm,-,N/A,,Overcast,0,2013-01-12 10:18:00
5:39 AM,37.4,37.4,100,30.13,0.2,Calm,Calm,-,N/A,,Overcast,0,2013-01-12 10:39:00
6:01 AM,37.4,37.4,100,30.14,0.5,Calm,Calm,-,N/A,,Overcast,0,2013-01-12 11:01:00
6:22 AM,37.4,37.4,100,30.15,0.5,Calm,Calm,-,N/A,,Overcast,0,2013-01-12 11:22:00
6:43 AM,37.4,37.4,100,30.16,0.5,Calm,Calm,-,N/A,,Overcast,0,2013-01-12 11:43:00
7:04 AM,37.4,37.4,100,30.17,0.2,Calm,Calm,-,N/A,,Overcast,0,2013-01-12 12:04:00
7:26 AM,37.4,37.4,100,30.17,0.2,Calm,Calm,-,N/A,,Overcast,0,2013-01-12 12:26:00
7:47 AM,37.4,37.4,100,30.17,0.2,Calm,Calm,-,N/A,,Overcast,0,2013-01-12 12:47:00
8:08 AM,37.4,37.4,100,30.18,0.2,Calm,Calm,-,N/A,,Overcast,0,2013-01-12 13:08:00
8:30 AM,39.2,39.2,100,30.18,0.2,Calm,Calm,-,N/A,,Overcast,0,2013-01-12 13:30:00
9:12 AM,37.4,37.4,100,30.18,0.2,Calm,Calm,-,N/A,,Overcast,0,2013-01-12 14:12:00
9:33 AM,39.2,39.2,100,30.18,0.2,Calm,Calm,-,N/A,,Overcast,0,2013-01-12 14:33:00
9:55 AM,39.2,39.2,100,30.19,0.5,Calm,Calm,-,N/A,,Overcast,0,2013-01-12 14:55:00
10:37 AM,41.0,41.0,100,30.19,1.2,Calm,Calm,-,N/A,,Overcast,0,2013-01-12 15:37:00
10:58 AM,41.0,41.0,100,30.19,2.0,Calm,Calm,-,N/A,,Overcast,0,2013-01-12 15:58:00
11:20 AM,42.8,42.8,100,30.18,3.0,Calm,Calm,-,N/A,,Overcast,0,2013-01-12 16:20:00
11:41 AM,44.6,44.6,100,30.17,4.0,Calm,Calm,-,N/A,,Scattered Clouds,0,2013-01-12 16:41:00
12:02 PM,46.4,46.4,100,30.16,5.0,Calm,Calm,-,N/A,,Scattered Clouds,0,2013-01-12 17:02:00
12:23 PM,44.6,44.6,100,30.15,5.0,Calm,Calm,-,N/A,,Clear,0,2013-01-12 17:23:00
12:45 PM,46.4,46.4,100,30.13,7.0,Calm,Calm,-,N/A,,Clear,0,2013-01-12 17:45:00
1:06 PM,50.0,48.2,94,30.13,7.0,Calm,Calm,-,N/A,,Clear,0,2013-01-12 18:06:00
1:27 PM,50.0,48.2,94,30.12,7.0,Calm,Calm,-,N/A,,Clear,0,2013-01-12 18:27:00
1:48 PM,51.8,46.4,82,30.12,7.0,Calm,Calm,-,N/A,,Clear,0,2013-01-12 18:48:00
2:10 PM,51.8,46.4,82,30.11,10.0,Calm,Calm,-,N/A,,Clear,0,2013-01-12 19:10:00
2:31 PM,53.6,48.2,82,30.11,7.0,Calm,Calm,-,N/A,,Clear,0,2013-01-12 19:31:00
2:52 PM,53.6,48.2,82,30.12,10.0,Calm,Calm,-,N/A,,Clear,0,2013-01-12 19:52:00
3:14 PM,53.6,46.4,77,30.12,10.0,Calm,Calm,-,N/A,,Clear,0,2013-01-12 20:14:00
3:35 PM,53.6,48.2,82,30.12,7.0,Calm,Calm,-,N/A,,Clear,0,2013-01-12 20:35:00
3:56 PM,53.6,48.2,82,30.13,7.0,Calm,Calm,-,N/A,,Clear,0,2013-01-12 20:56:00
4:17 PM,53.6,46.4,77,30.13,7.0,Calm,Calm,-,N/A,,Clear,0,2013-01-12 21:17:00
4:39 PM,53.6,46.4,77,30.13,10.0,Calm,Calm,-,N/A,,Clear,0,2013-01-12 21:39:00
5:00 PM,53.6,46.4,77,30.13,10.0,NNW,3.5,-,N/A,,Clear,340,2013-01-12 22:00:00
5:21 PM,51.8,46.4,82,30.13,10.0,NW,3.5,-,N/A,,Clear,310,2013-01-12 22:21:00
5:42 PM,50.0,46.4,87,30.13,10.0,NNE,3.5,-,N/A,,Clear,30,2013-01-12 22:42:00
6:04 PM,51.8,48.2,88,30.13,7.0,Calm,Calm,-,N/A,,Clear,0,2013-01-12 23:04:00
6:25 PM,51.8,48.2,88,30.13,7.0,NNW,3.5,-,N/A,,Clear,340,2013-01-12 23:25:00
6:46 PM,50.0,48.2,94,30.12,7.0,NNW,3.5,-,N/A,,Clear,330,2013-01-12 23:46:00
7:07 PM,50.0,46.4,87,30.12,7.0,ENE,3.5,-,N/A,,Clear,60,2013-01-13 00:07:00
7:29 PM,48.2,46.4,93,30.12,7.0,NNE,3.5,-,N/A,,Clear,30,2013-01-13 00:29:00
7:50 PM,50.0,46.4,87,30.11,7.0,Calm,Calm,-,N/A,,Clear,0,2013-01-13 00:50:00
8:11 PM,48.2,46.4,93,30.12,7.0,Calm,Calm,-,N/A,,Clear,0,2013-01-13 01:11:00
8:32 PM,46.4,46.4,100,30.12,7.0,Calm,Calm,-,N/A,,Clear,0,2013-01-13 01:32:00
8:54 PM,46.4,46.4,100,30.12,7.0,North,3.5,-,N/A,,Clear,10,2013-01-13 01:54:00
9:15 PM,46.4,46.4,100,30.12,7.0,North,5.8,-,N/A,,Clear,350,2013-01-13 02:15:00
9:36 PM,48.2,46.4,93,30.12,7.0,Calm,Calm,-,N/A,,Clear,0,2013-01-13 02:36:00
9:57 PM,46.4,46.4,100,30.12,7.0,Calm,Calm,-,N/A,,Clear,0,2013-01-13 02:57:00
10:19 PM,46.4,46.4,100,30.12,5.0,Calm,Calm,-,N/A,,Clear,0,2013-01-13 03:19:00
10:40 PM,46.4,46.4,100,30.12,5.0,Calm,Calm,-,N/A,,Clear,0,2013-01-13 03:40:00
11:01 PM,46.4,46.4,100,30.11,5.0,North,4.6,-,N/A,,Scattered Clouds,360,2013-01-13 04:01:00
11:23 PM,46.4,46.4,100,30.12,7.0,Calm,Calm,-,N/A,,Scattered Clouds,0,2013-01-13 04:23:00
11:44 PM,46.4,46.4,100,30.11,5.0,Calm,Calm,-,N/A,,Mostly Cloudy,0,2013-01-13 04:44:00